{"data":{"norad_id":63197,"intl_designator":"2025-048Q","name":"STARLINK-32960","alt_names":[],"object_type":"PAYLOAD","status":"ACTIVE","operator":null,"country":"US","launch_date":"2025-03-13","launch_site_code":"AFETR","launch_vehicle":null,"mission":null,"orbit_class":"UNKNOWN","rcs_meters":null,"size_class":null,"mass_kg":null,"dimensions":null,"purposes":["comms"],"wikipedia_slug":null,"has_3d_model":false,"image_url":null,"decayed_at":null,"tle_current":{"epoch":"2026-09-21T19:20:18.736224Z","epoch_age_seconds":49441,"freshness":"FRESH","line1":"1 63197U 25048Q   26264.80577241  .00016876  00000+0  62111-3 0  9990","line2":"2 63197  43.0023  57.9265 0002198   5.2635 354.8240 15.27593933 87081","mean_motion":15.27593933,"eccentricity":0.0002198,"inclination_deg":43.0023,"raan_deg":57.9265,"arg_perigee_deg":5.2635,"mean_anomaly_deg":354.824,"bstar":0.00062111,"rev_number":8708,"period_min":94.265888918007,"perigee_km":481.49929640856,"apogee_km":484.51545547622,"semimajor_km":6861.1443759424,"source":"CELESTRAK","updated_at":"2026-09-22T09:00:49.797528Z"}}}